[[{"header":{"parameterUnit":"m.s-1","parameterCategory":1,"la1":30.2991,"la2":30.254,"lo1":-89.0895,"lo2":-89.0444,"dx":0.0017,"dy":0.0017,"nx":28,"ny":28,"refTime":"2022-11-17T15:00:00:Z","depth":0,"parameterNumber":2,"parameterNumberName":"U-component_of_WINDS"},"data":[0,0,0,0,0,0,0,0,0,0,0,0,0,0,0,0,0,0,0,0,0,0,0,0,0,0,0,0,0,0,0,0,0,0,0,0,0,0,0,0,0,0,0,0,0,0,0,0,0,0,0,0,0,0,0,0,0,0,-4.5814,-4.5814,0,-4.5842,-4.5842,-4.5842,-4.5709,-4.5705,-4.5701,-4.5697,-4.5727,-4.5731,-4.5735,0,0,0,0,0,0,0,0,0,0,0,0,0,-4.5647,-4.565,-4.5814,-4.5814,-4.5815,-4.5842,-4.5842,-4.5842,-4.5709,-4.5705,-4.57,-4.5696,-4.5725,-4.5731,-4.5736,0,0,0,0,0,0,0,0,0,0,0,0,0,-4.5701,-4.5652,-4.5814,-4.5752,-4.5746,-4.5841,-4.5842,-4.5842,-4.571,-4.5705,-4.5699,-4.5693,-4.5724,-4.573,-4.5737,-4.5893,0,0,-4.5757,-4.576,0,0,0,0,0,0,0,0,-4.5698,-4.5708,-4.5761,-4.5756,-4.575,-4.5766,-4.5793,-4.586,-4.5712,-4.5724,-4.5697,-4.5691,-4.5745,-4.5749,-4.5767,-4.5895,-4.5896,-4.5757,-4.5761,-4.5764,-4.5766,0,0,0,0,0,0,0,-4.5695,-4.5706,-4.5825,-4.5761,-4.5755,-4.5722,-4.5724,-4.5805,-4.5767,-4.5723,-4.5713,-4.5718,-4.5741,-4.5761,-4.5767,-4.5896,-4.5757,-4.5763,-4.5767,-4.577,-4.6153,-4.6159,0,0,0,0,0,0,-4.5699,-4.5703,-4.5824,-4.5826,-4.571,-4.573,-4.5732,-4.5767,-4.5765,-4.576,-4.5723,-4.5712,-4.5753,-4.5759,-4.5767,-4.5951,-4.5764,-4.577,-4.5774,-4.6147,-4.6155,-4.6161,0,0,0,0,0,0,-4.5696,-4.5711,-4.5823,-4.5762,-4.5774,-4.5739,-4.578,-4.577,-4.579,-4.5766,-4.5758,-4.5751,-4.5748,-4.5758,-4.5863,-4.595,-4.5773,-4.5779,-4.614,-4.6149,-4.6158,-4.6319,0,0,0,0,0,0,-4.5692,-4.5711,-4.577,-4.5764,-4.5777,-4.5919,-4.5785,-4.5775,-4.5802,-4.5788,-4.579,-4.5785,-4.5744,-4.5854,-4.5869,-4.5956,-4.5784,-4.6132,-4.6144,-4.6155,-4.6306,-4.6333,-4.6356,0,0,0,0,0,-4.5686,-4.5815,-4.5774,-4.5789,-4.5851,-4.5924,-4.5931,-4.5882,-4.581,-4.5869,-4.5853,-4.5784,-4.5937,-4.5866,-4.5882,-4.5972,-4.6126,-4.6141,-4.6154,-4.6295,-4.6327,-4.6355,0,0,0,0,0,0,-4.5833,-4.5813,-4.5767,-4.5898,-4.5914,-4.5901,-4.5975,-4.5919,-4.5956,-4.5941,-4.5878,-4.588,-4.5996,-4.5993,-4.5914,-4.6123,-4.6019,-4.6037,-4.612,-4.6151,-4.6176,-4.6174,-4.579,0,0,0,0,0,-4.588,-4.5941,-4.592,-4.6037,-4.6047,-4.601,-4.604,-4.6001,-4.6014,-4.6021,-4.6012,-4.6028,-4.6079,-4.6115,-4.6161,-4.6304,-4.6303,-4.6374,-4.6399,-4.6419,-4.6436,-4.6512,-4.6543,-4.6208,-4.6207,-4.6207,0,0,-4.5979,-4.5975,-4.6018,-4.6067,-4.6074,-4.6138,-4.6017,-4.609,-4.6137,-4.6032,-4.613,-4.6125,-4.6138,-4.6263,-4.6318,-4.6265,-4.6528,-4.6437,-4.6454,-4.646,-4.6529,-4.6561,-4.6589,-4.6217,-4.6215,-4.6214,0,0,-4.6192,-4.6195,-4.6293,-4.6303,-4.6315,-4.6289,-4.6313,-4.6309,-4.6301,-4.6399,-4.6321,-4.6376,-4.6466,-4.6479,-4.6497,-4.6714,-4.6653,-4.6731,-4.6862,-4.6936,-4.6962,-4.6985,-4.7063,-4.7091,-4.6747,-4.6747,-4.6748,0,-4.6313,-4.6407,-4.6351,-4.6429,-4.6453,-4.6359,-4.6458,-4.647,-4.6498,-4.6516,-4.6457,-4.6567,-4.657,-4.6696,-4.6749,-4.6767,-4.6792,-4.6731,-4.6963,-4.6985,-4.7006,-4.708,-4.7109,-4.6757,-4.6756,-4.6755,-4.6754,0,-4.6556,-4.6622,-4.6699,-4.6727,-4.6759,-4.6848,-4.6805,-4.6844,-4.6802,-4.6782,-4.6883,-4.6882,-4.6926,-4.6953,-4.6913,-4.7074,-4.7041,-4.6973,-4.6868,-4.7049,-4.7116,-4.7144,-4.677,-4.6767,-4.6764,-4.6762,0,0,-4.6863,-4.6858,-4.6888,-4.6899,-4.6905,-4.6955,-4.7039,-4.7082,-4.7117,-4.7138,-4.7207,-4.7285,-4.7222,-4.7243,-4.7203,-4.7268,-4.744,-4.7192,-4.7191,-4.7238,-4.7617,-4.7669,-4.7702,-4.7398,-4.7403,-4.7408,-4.7616,0,-4.7072,-4.7215,-4.7166,-4.7311,-4.7372,-4.7283,-4.7356,-4.7368,-4.7351,-4.74,-4.7381,-4.7438,-4.735,-4.7362,-4.7423,-4.7406,-4.7515,-4.739,-4.7462,-4.7466,-4.7463,-4.7738,-4.7793,-4.799,-4.7642,-4.7647,-4.765,0,-4.7335,-4.7367,-4.7519,-4.7514,-4.7537,-4.7604,-4.7638,-4.7686,-4.7697,-4.768,-4.7704,-4.7649,-4.7731,-4.7625,-4.7736,-4.7653,-4.7679,-4.7675,-4.7681,-4.7687,-4.757,-4.7752,-4.8051,-4.8081,-4.7691,-4.7688,-4.7685,0,-4.7545,-4.7625,-4.7726,-4.7739,-4.7736,-4.7784,-4.7785,-4.7791,-4.7819,-4.7849,-4.7867,-4.7907,-4.7929,-4.7961,-4.7919,-4.7845,-4.8037,-4.7927,-4.8025,-4.8027,-4.8071,-4.8069,-4.838,-4.8087,-4.8086,-4.8086,-4.8085,0,-4.7784,-4.7881,-4.782,-4.7883,-4.7988,-4.793,-4.8036,-4.8027,-4.8032,-4.8091,-4.8016,-4.8073,-4.8013,-4.8065,-4.8032,-4.8129,-4.814,-4.8129,-4.8119,-4.8136,-4.8138,-4.8153,-4.8139,-4.8093,-4.8092,-4.809,-4.8089,0,-4.8037,-4.8001,-4.8105,-4.8093,-4.8092,-4.817,-4.816,-4.8217,-4.8194,-4.827,-4.8284,-4.8249,-4.8305,-4.8266,-4.8322,-4.83,-4.8428,-4.8399,-4.8425,-4.8417,-4.8518,-4.8509,-4.8851,-4.8892,-4.8572,-4.8575,-4.8578,0,-4.8192,-4.8264,-4.826,-4.8294,-4.8299,-4.8355,-4.8383,-4.8329,-4.8362,-4.8379,-4.8435,-4.8484,-4.8521,-4.8615,-4.8595,-4.8637,-4.8609,-4.8726,-4.8615,-4.863,-4.8611,-4.8608,-4.8615,-4.8749,-4.8752,-4.8755,-4.8758,0,-4.8472,-4.845,-4.8494,-4.8532,-4.8568,-4.8595,-4.8616,-4.8648,-4.8593,-4.8633,-4.869,-4.8718,-4.8775,-4.8826,-4.886,-4.8861,-4.8801,-4.8793,-4.8818,-4.8836,-4.8848,-4.8843,-4.8486,-4.8785,-4.8783,-4.8781,-4.8779,-4.8778,-4.8681,-4.8741,-4.8747,-4.8798,-4.8808,-4.8829,-4.8882,-4.8866,-4.8911,-4.8953,-4.8918,-4.8986,-4.8994,-4.9034,-4.9042,-4.9094,-4.9046,-4.9083,-4.9092,-4.9102,-4.9117,-4.8839,-4.91,-4.9099,-4.9099,-4.9098,-4.9097,0,-4.8958,-4.8957,-4.9004,-4.9036,-4.9076,-4.9015,-4.9034,-4.9072,-4.9132,-4.9145,-4.9183,-4.9247,-4.9295,-4.9278,-4.9321,-4.9366,-4.9339,-4.9379,-4.9375,-4.9376,-4.9157,-4.9131,-4.9399,-4.9399,-4.9399,-4.9399,-4.9399,-4.9399,-4.9106,-4.9204,-4.9183,-4.9284,-4.9282,-4.9347,-4.9364,-4.9383,-4.9392,-4.9468,-4.9507,-4.9495,-4.9496,-4.9538,-4.9579,-4.9573,-4.9592,-4.9642,-4.9626,-4.9422,-4.9392,-4.9364,-4.9339,-4.9647,-4.9647,-4.9841,-4.9843,-4.9845]},{"header":{"parameterUnit":"m.s-1","parameterCategory":1,"la1":30.2991,"la2":30.254,"lo1":-89.0895,"lo2":-89.0444,"dx":0.0017,"dy":0.0017,"nx":28,"ny":28,"refTime":"2022-11-17T15:00:00:Z","depth":0,"parameterNumber":3,"parameterNumberName":"V-component_of_WINDS"},"data":[0,0,0,0,0,0,0,0,0,0,0,0,0,0,0,0,0,0,0,0,0,0,0,0,0,0,0,0,0,0,0,0,0,0,0,0,0,0,0,0,0,0,0,0,0,0,0,0,0,0,0,0,0,0,0,0,0,0,-4.949,-4.949,0,-4.9542,-4.9543,-4.9543,-4.9475,-4.9473,-4.947,-4.9468,-4.9518,-4.9522,-4.9526,0,0,0,0,0,0,0,0,0,0,0,0,0,-4.9327,-4.933,-4.949,-4.949,-4.9491,-4.9542,-4.9543,-4.9543,-4.9476,-4.9473,-4.947,-4.9467,-4.9517,-4.9522,-4.9526,0,0,0,0,0,0,0,0,0,0,0,0,0,-4.939,-4.9331,-4.9489,-4.9463,-4.9462,-4.9542,-4.9543,-4.9543,-4.9476,-4.9473,-4.9469,-4.9465,-4.9516,-4.9521,-4.9526,-4.9634,0,0,-4.9543,-4.9545,0,0,0,0,0,0,0,0,-4.9387,-4.9396,-4.9467,-4.9465,-4.9463,-4.9498,-4.9504,-4.9574,-4.9477,-4.9471,-4.9468,-4.9464,-4.9515,-4.952,-4.9538,-4.9636,-4.9638,-4.9544,-4.9547,-4.9549,-4.9551,0,0,0,0,0,0,0,-4.9382,-4.9394,-4.951,-4.9468,-4.9466,-4.9448,-4.9453,-4.9517,-4.9512,-4.9471,-4.9466,-4.9473,-4.9513,-4.9533,-4.9538,-4.9639,-4.9543,-4.9548,-4.9552,-4.9554,-4.9827,-4.9831,0,0,0,0,0,0,-4.9382,-4.939,-4.9508,-4.9512,-4.9415,-4.9454,-4.9459,-4.9491,-4.9512,-4.9511,-4.9476,-4.947,-4.9525,-4.9532,-4.954,-4.9666,-4.9549,-4.9554,-4.9557,-4.9823,-4.9828,-4.9832,0,0,0,0,0,0,-4.9378,-4.9393,-4.9506,-4.945,-4.9463,-4.946,-4.9496,-4.9494,-4.9513,-4.9516,-4.9514,-4.9498,-4.9522,-4.9532,-4.9611,-4.9667,-4.9557,-4.9562,-4.9818,-4.9824,-4.983,-4.9921,0,0,0,0,0,0,-4.9374,-4.9392,-4.9434,-4.9451,-4.9466,-4.9578,-4.95,-4.9497,-4.9523,-4.9515,-4.9535,-4.9535,-4.952,-4.9603,-4.9616,-4.9673,-4.9566,-4.9813,-4.9821,-4.9828,-4.9913,-4.9929,-4.9943,0,0,0,0,0,-4.9369,-4.9457,-4.9437,-4.9451,-4.9519,-4.9582,-4.959,-4.9572,-4.9528,-4.9569,-4.9571,-4.9534,-4.9659,-4.9612,-4.9626,-4.9685,-4.9809,-4.9819,-4.9827,-4.9906,-4.9926,-4.9943,0,0,0,0,0,0,-4.9445,-4.9459,-4.9436,-4.9533,-4.9557,-4.957,-4.9622,-4.9594,-4.963,-4.9621,-4.9596,-4.9601,-4.9685,-4.9692,-4.964,-4.9789,-4.9727,-4.9739,-4.9781,-4.98,-4.9815,-4.9812,-4.957,0,0,0,0,0,-4.9474,-4.9525,-4.9533,-4.9618,-4.9631,-4.9625,-4.9651,-4.9636,-4.9659,-4.9668,-4.9675,-4.9698,-4.9742,-4.9771,-4.9812,-4.9913,-4.9916,-4.996,-4.9975,-4.9988,-4.9999,-5.0052,-5.0072,-4.9861,-4.9861,-4.9861,0,0,-4.9533,-4.9546,-4.958,-4.9634,-4.965,-4.9703,-4.9633,-4.9692,-4.973,-4.9676,-4.9751,-4.9757,-4.9781,-4.9871,-4.9911,-4.988,-5.0057,-4.9999,-5.0009,-5.0013,-5.0063,-5.0083,-5.0101,-4.9867,-4.9866,-4.9865,0,0,-4.9667,-4.9683,-4.9755,-4.9773,-4.9799,-4.9794,-4.9811,-4.9828,-4.9831,-4.9906,-4.9866,-4.991,-4.9987,-5.0005,-5.0025,-5.0165,-5.0132,-5.0178,-5.0258,-5.031,-5.0326,-5.0341,-5.039,-5.0409,-5.0189,-5.0189,-5.019,0,-4.9737,-4.9815,-4.9795,-4.9857,-4.9881,-4.9835,-4.9907,-4.9925,-4.9963,-4.998,-4.9944,-5.0039,-5.0052,-5.0145,-5.018,-5.0197,-5.0215,-5.0176,-5.0326,-5.034,-5.0353,-5.04,-5.0419,-5.0195,-5.0194,-5.0194,-5.0193,0,-4.9899,-4.9954,-5.0009,-5.0048,-5.0078,-5.0144,-5.0133,-5.0166,-5.0147,-5.0145,-5.0221,-5.0235,-5.0277,-5.0298,-5.028,-5.0389,-5.0368,-5.033,-5.0267,-5.0379,-5.0423,-5.0441,-5.0203,-5.0201,-5.0199,-5.0198,0,0,-5.0085,-5.0111,-5.0131,-5.0148,-5.0173,-5.0214,-5.0277,-5.0319,-5.0348,-5.0375,-5.0427,-5.0492,-5.0457,-5.0479,-5.0462,-5.0508,-5.0617,-5.0463,-5.0463,-5.0491,-5.0737,-5.0766,-5.0787,-5.0595,-5.0599,-5.0601,-5.0735,0,-5.0219,-5.033,-5.0313,-5.042,-5.047,-5.0427,-5.0482,-5.0502,-5.0502,-5.0543,-5.0541,-5.0588,-5.0538,-5.0551,-5.0594,-5.0595,-5.0666,-5.0585,-5.0642,-5.0645,-5.0638,-5.081,-5.0841,-5.0966,-5.0752,-5.0754,-5.0757,0,-5.039,-5.0425,-5.0537,-5.0553,-5.0573,-5.0624,-5.066,-5.07,-5.0722,-5.0718,-5.0743,-5.0717,-5.0779,-5.0715,-5.0799,-5.0744,-5.0766,-5.077,-5.0774,-5.0779,-5.0708,-5.0819,-5.1006,-5.1025,-5.0783,-5.0781,-5.0779,0,-5.0514,-5.0588,-5.0664,-5.068,-5.0701,-5.0737,-5.0747,-5.0765,-5.0791,-5.0823,-5.0839,-5.0877,-5.0898,-5.0928,-5.0913,-5.0867,-5.1,-5.0934,-5.0997,-5.0998,-5.1028,-5.1026,-5.122,-5.1042,-5.1042,-5.1041,-5.1041,0,-5.0666,-5.0736,-5.072,-5.0767,-5.0844,-5.0823,-5.0899,-5.0904,-5.092,-5.0966,-5.0931,-5.0974,-5.0952,-5.0994,-5.0982,-5.1053,-5.1063,-5.1061,-5.1057,-5.1064,-5.1065,-5.1079,-5.107,-5.1046,-5.1045,-5.1044,-5.1043,0,-5.0817,-5.0809,-5.089,-5.0903,-5.0908,-5.0964,-5.0975,-5.1018,-5.1014,-5.1073,-5.1086,-5.108,-5.1127,-5.1115,-5.1166,-5.1158,-5.1248,-5.1233,-5.1241,-5.1238,-5.1302,-5.1296,-5.1512,-5.1539,-5.1344,-5.1346,-5.1347,0,-5.0914,-5.0968,-5.0987,-5.1016,-5.1029,-5.1076,-5.1102,-5.1083,-5.1112,-5.114,-5.118,-5.1224,-5.1258,-5.1335,-5.1335,-5.1374,-5.1359,-5.1432,-5.1365,-5.137,-5.136,-5.1357,-5.1362,-5.1446,-5.1448,-5.145,-5.1451,0,-5.1088,-5.1082,-5.1122,-5.1161,-5.1194,-5.1224,-5.125,-5.1275,-5.1257,-5.1291,-5.134,-5.1367,-5.1419,-5.1463,-5.1498,-5.1507,-5.1476,-5.1473,-5.1489,-5.1498,-5.15,-5.1499,-5.1278,-5.1468,-5.1466,-5.1465,-5.1464,-5.1464,-5.1215,-5.126,-5.1281,-5.1327,-5.1344,-5.1369,-5.1411,-5.1412,-5.1453,-5.1495,-5.148,-5.1535,-5.1554,-5.1598,-5.1611,-5.1653,-5.1625,-5.165,-5.1656,-5.1662,-5.167,-5.1493,-5.1659,-5.1659,-5.1658,-5.1658,-5.1658,0,-5.1387,-5.1398,-5.1441,-5.1478,-5.1514,-5.1483,-5.151,-5.1541,-5.1591,-5.1611,-5.1646,-5.1701,-5.1743,-5.1746,-5.1785,-5.1818,-5.1805,-5.1829,-5.1826,-5.1829,-5.1693,-5.1675,-5.1839,-5.1839,-5.1839,-5.1839,-5.1839,-5.1839,-5.1481,-5.1555,-5.1551,-5.1633,-5.1643,-5.1697,-5.1715,-5.1737,-5.1754,-5.1817,-5.1852,-5.1854,-5.1867,-5.1907,-5.1944,-5.1943,-5.1959,-5.1989,-5.1983,-5.1856,-5.1838,-5.1821,-5.1804,-5.1992,-5.1993,-5.2115,-5.2116,-5.2117]}]]